Home   Weather   Uelzen   Past weeks

Flag for Germany Past Weather in Uelzen, Lower Saxony, Germany — Yesterday and Last 2 Weeks

Now
28 °F

Partly sunny.


Feels Like: 28 °F
Forecast: 25 / 34 °F
Wind: 2 mph from Southwest

Location: Fassberg

Current Time: Jan 19, 2017 at 12:02:39 pm

Latest Report: Jan 19, 2017 at 11:20 am


Visibility: 4 mi

Pressure: 30.69 "Hg

Humidity: 80%

Dew Point: 23 °F

Location of UelzenLocation

Past Weather in Uelzen — Graph

°F

Uelzen Temperature Yesterday

Maximum temperature yesterday: 28 °F (at 1:28 pm)
Minimum temperature yesterday: 23 °F (at 4:20 am)
Average temperature yesterday: 26 °F

High & Low Weather Summary for the Past Weeks

 TemperatureHumidityPressure
High41 °F (Jan 11, 4:40 pm)100% (Jan 7, 6:12 pm)30.77 "Hg (Jan 7, 6:12 pm)
Low7 °F (Jan 6, 8:20 am)55% (Jan 4, 9:20 pm)28.97 "Hg (Jan 13, 5:20 am)
Average29 °F88%30.07 "Hg
* Reported Jan 4 10:08 am — Jan 19 10:20 am, Uelzen, Weather by CustomWeather, © 2017

Note: Actual official high and low records may vary slightly from our data, if they occured in-between our weather recording intervals... More about our weather records

Advertising

Uelzen Weather History for the Previous 24 Hours

Scroll right to see more
 ConditionsComfort  
Time TempWeatherWind HumidityBarometerVisibility
10:20 am
Thu, Jan 19
27 °FPartly sunny.5 mph86%30.66 "Hg4 mi
9:20 am27 °FIce fog.5 mph86%30.66 "Hg3 mi
8:20 am27 °FIce fog.5 mph86%30.66 "Hg3 mi
7:33 am27 °FIce fog.3 mph86%30.66 "Hg2 mi
6:20 am27 °FPassing clouds.3 mph86%30.66 "Hg4 mi
5:20 am27 °FIce fog.2 mph93%30.66 "Hg3 mi
4:20 am27 °FPassing clouds.2 mph93%30.69 "Hg4 mi
3:20 am27 °FPartly cloudy.2 mph93%30.69 "Hg4 mi
2:20 am27 °FPartly cloudy.2 mph93%30.69 "Hg4 mi
1:20 am27 °FPassing clouds.2 mph93%30.69 "Hg4 mi
12:20 am27 °FPassing clouds.2 mph93%30.69 "Hg4 mi
11:20 pm
Wed, Jan 18
27 °FPassing clouds.3 mph93%30.69 "Hg4 mi
10:20 pm27 °FPassing clouds.2 mph93%30.69 "Hg4 mi
9:20 pm27 °FIce fog.3 mph93%30.69 "Hg3 mi
8:20 pm27 °FIce fog.5 mph93%30.69 "Hg3 mi
7:40 pm27 °FIce fog.2 mph93%30.69 "Hg3 mi
7:20 pm27 °FIce fog.2 mph93%30.72 "Hg2 mi
6:20 pm25 °FIce fog.1 mph100%30.72 "Hg2 mi
5:20 pm28 °FIce fog.2 mph86%30.72 "Hg2 mi
5:00 pm28 °FIce fog.3 mph86%30.72 "Hg3 mi
4:20 pm28 °FIce fog.2 mph86%30.72 "Hg3 mi
3:20 pm28 °FBroken clouds.1 mph86%30.72 "Hg4 mi
2:34 pm28 °FIce fog.3 mph86%30.72 "Hg3 mi
2:20 pm28 °FIce fog.3 mph86%30.72 "Hg3 mi
1:28 pm28 °FIce fog.5 mph86%30.72 "Hg3 mi
12:20 pm27 °FIce fog.5 mph93%30.72 "Hg2 mi
Weather by CustomWeather, © 2017

See weather overviewHow to use our weather pages